[[{"header":{"parameterUnit":"m.s-1","parameterCategory":1,"la1":30.2991,"la2":30.254,"lo1":-89.0895,"lo2":-89.0444,"dy":0.0017,"dx":0.0017,"nx":28,"ny":28,"refTime":"2024-06-22T03:00:00:Z","depth":0,"parameterNumber":2,"parameterNumberName":"U-component_of_WINDS"},"data":[0,0,0,0,0,0,0,0,0,0,0,0,0,0,0,0,0,0,0,0,0,0,0,0,0,0,0,0,0,0,0,0,0,0,0,0,0,0,0,0,0,0,0,0,0,0,0,0,0,0,0,0,0,0,0,0,0,0,1.1745,1.1746,0,1.1791,1.1792,1.1792,1.1802,1.1801,1.1801,1.1801,1.1845,1.1847,1.1848,0,0,0,0,0,0,0,0,0,0,0,0,0,1.1663,1.1665,1.1745,1.1746,1.1747,1.1791,1.1792,1.1792,1.1802,1.1801,1.1801,1.18,1.1845,1.1847,1.1848,0,0,0,0,0,0,0,0,0,0,0,0,0,1.1703,1.1665,1.1745,1.1757,1.1758,1.1791,1.1792,1.1792,1.1802,1.1801,1.1801,1.18,1.1844,1.1846,1.1849,1.1873,0,0,1.1856,1.1856,0,0,0,0,0,0,0,0,1.1701,1.1706,1.1754,1.1756,1.1758,1.179,1.1779,1.1819,1.1802,1.1785,1.1801,1.18,1.1827,1.1831,1.184,1.1875,1.1877,1.1856,1.1857,1.1858,1.1859,0,0,0,0,0,0,0,1.1698,1.1704,1.1763,1.1755,1.1757,1.1758,1.1764,1.1787,1.1808,1.1787,1.1787,1.1793,1.1828,1.1838,1.1842,1.1877,1.1856,1.1858,1.1859,1.186,1.1931,1.1932,0,0,0,0,0,0,1.1693,1.1702,1.1762,1.1765,1.1727,1.176,1.1766,1.178,1.1808,1.1812,1.1793,1.1793,1.1835,1.1839,1.1843,1.1872,1.1858,1.186,1.1861,1.1931,1.1932,1.1932,0,0,0,0,0,0,1.1692,1.1699,1.176,1.1733,1.1741,1.1762,1.1778,1.1781,1.1792,1.1813,1.1817,1.18,1.1834,1.184,1.1865,1.1873,1.1861,1.1863,1.193,1.1931,1.1932,1.193,0,0,0,0,0,0,1.1689,1.1698,1.1708,1.1734,1.1743,1.1782,1.1779,1.1783,1.1796,1.1796,1.182,1.1824,1.1834,1.1861,1.1867,1.1876,1.1865,1.193,1.1931,1.1932,1.1929,1.1931,1.1932,0,0,0,0,0,1.1686,1.1706,1.1709,1.1716,1.1756,1.1783,1.1788,1.18,1.1796,1.1806,1.182,1.1823,1.1872,1.1864,1.187,1.188,1.1929,1.193,1.1932,1.1929,1.193,1.1932,0,0,0,0,0,0,1.168,1.1709,1.1713,1.1741,1.1759,1.1784,1.1797,1.1801,1.182,1.182,1.1834,1.1839,1.1863,1.1874,1.1865,1.1904,1.19,1.1903,1.1896,1.1897,1.1899,1.1895,1.1867,0,0,0,0,0,1.1682,1.1703,1.1726,1.1749,1.1758,1.1776,1.1788,1.1796,1.1815,1.1822,1.1838,1.1855,1.1874,1.1887,1.1906,1.1931,1.1936,1.1941,1.1942,1.1943,1.1945,1.1958,1.196,1.1936,1.1936,1.1936,0,0,1.1687,1.1705,1.1717,1.1748,1.1763,1.1782,1.1782,1.1803,1.1817,1.1825,1.1849,1.1861,1.1882,1.1907,1.1918,1.1917,1.1953,1.1945,1.1945,1.1947,1.1959,1.1961,1.1963,1.1937,1.1937,1.1937,0,0,1.1704,1.1721,1.1741,1.1756,1.1778,1.179,1.1795,1.1818,1.1827,1.1851,1.1858,1.1874,1.1907,1.1921,1.1932,1.1954,1.1957,1.1959,1.1965,1.1978,1.198,1.1981,1.1988,1.199,1.1961,1.1961,1.1961,0,1.1706,1.1737,1.175,1.177,1.1783,1.1792,1.1812,1.1825,1.1853,1.1861,1.1859,1.19,1.1914,1.1942,1.1947,1.1956,1.1961,1.1957,1.1978,1.198,1.1982,1.1988,1.1991,1.1961,1.1961,1.1961,1.1961,0,1.1737,1.1758,1.1771,1.1798,1.1812,1.1832,1.1848,1.186,1.1867,1.1878,1.1902,1.192,1.1942,1.1949,1.1956,1.1977,1.1975,1.1976,1.1972,1.1984,1.199,1.1993,1.1961,1.1961,1.1961,1.1961,0,0,1.1753,1.1786,1.179,1.1802,1.1827,1.1843,1.1862,1.1884,1.1894,1.1913,1.1928,1.1956,1.1956,1.1969,1.1977,1.1988,1.2002,1.1987,1.1987,1.1988,1.2025,1.2024,1.2027,1.2004,1.2005,1.2005,1.2023,0,1.1772,1.1808,1.182,1.1849,1.1868,1.1876,1.1892,1.1909,1.192,1.1936,1.1948,1.1967,1.1966,1.1974,1.1985,1.1998,1.2009,1.1997,1.2018,1.2019,1.2012,1.203,1.2029,1.2045,1.2026,1.2026,1.2026,0,1.18,1.1819,1.185,1.1872,1.188,1.1895,1.1915,1.1931,1.1949,1.1956,1.197,1.1977,1.1996,1.1992,1.2018,1.2009,1.2018,1.2026,1.2027,1.2028,1.2023,1.2031,1.2051,1.2053,1.203,1.203,1.203,0,1.1806,1.1839,1.1862,1.1872,1.1898,1.1908,1.1919,1.1937,1.1949,1.1967,1.1974,1.1994,1.2004,1.2018,1.203,1.2026,1.2054,1.2051,1.206,1.2059,1.2065,1.2064,1.2085,1.2072,1.2072,1.2072,1.2072,0,1.1826,1.1844,1.1865,1.1878,1.1899,1.1912,1.1932,1.1943,1.1959,1.1974,1.1982,1.1996,1.2011,1.2027,1.2036,1.2055,1.206,1.2065,1.2067,1.2064,1.2063,1.207,1.2069,1.2073,1.2073,1.2073,1.2073,0,1.1836,1.1851,1.1876,1.1898,1.1904,1.1918,1.1937,1.195,1.1961,1.198,1.1986,1.2003,1.2021,1.2034,1.2058,1.2064,1.2085,1.2087,1.2079,1.208,1.2087,1.2086,1.2112,1.2116,1.2102,1.2102,1.2102,0,1.1847,1.1862,1.1886,1.1897,1.1908,1.1926,1.1938,1.1952,1.1964,1.1985,1.1995,1.2015,1.2031,1.206,1.2074,1.2092,1.2094,1.2102,1.2097,1.2093,1.2093,1.2092,1.2093,1.2103,1.2103,1.2103,1.2103,0,1.1865,1.1872,1.189,1.1909,1.1924,1.194,1.1956,1.1965,1.1981,1.1994,1.2013,1.2026,1.205,1.2068,1.2088,1.2098,1.2103,1.2105,1.2107,1.2104,1.2098,1.21,1.208,1.2104,1.2104,1.2104,1.2104,1.2104,1.1876,1.1888,1.1907,1.1926,1.194,1.1955,1.1968,1.198,1.1997,1.2018,1.2025,1.2044,1.2061,1.2088,1.2099,1.2113,1.2113,1.2117,1.2118,1.2119,1.2118,1.2096,1.2117,1.2117,1.2117,1.2117,1.2117,0,1.1893,1.1906,1.1923,1.1946,1.196,1.1964,1.1982,1.1994,1.2011,1.2027,1.2042,1.2064,1.2082,1.2097,1.2115,1.2124,1.2127,1.2129,1.2128,1.213,1.2118,1.2113,1.2126,1.2126,1.2126,1.2126,1.2126,1.2126,1.1904,1.1925,1.1933,1.1961,1.1973,1.1993,1.2003,1.2016,1.2028,1.2052,1.2067,1.2077,1.2092,1.2112,1.2128,1.2132,1.2138,1.2139,1.2143,1.2132,1.2131,1.213,1.2125,1.214,1.214,1.2153,1.2154,1.2154]},{"header":{"parameterUnit":"m.s-1","parameterCategory":1,"la1":30.2991,"la2":30.254,"lo1":-89.0895,"lo2":-89.0444,"dy":0.0017,"dx":0.0017,"nx":28,"ny":28,"refTime":"2024-06-22T03:00:00:Z","depth":0,"parameterNumber":3,"parameterNumberName":"V-component_of_WINDS"},"data":[0,0,0,0,0,0,0,0,0,0,0,0,0,0,0,0,0,0,0,0,0,0,0,0,0,0,0,0,0,0,0,0,0,0,0,0,0,0,0,0,0,0,0,0,0,0,0,0,0,0,0,0,0,0,0,0,0,0,3.3204,3.3204,0,3.3204,3.3204,3.3204,3.3143,3.3141,3.314,3.3138,3.3139,3.314,3.3142,0,0,0,0,0,0,0,0,0,0,0,0,0,3.3147,3.3149,3.3204,3.3204,3.3204,3.3204,3.3204,3.3204,3.3143,3.3141,3.3139,3.3137,3.3138,3.314,3.3142,0,0,0,0,0,0,0,0,0,0,0,0,0,3.3162,3.3149,3.3204,3.3173,3.317,3.3204,3.3204,3.3204,3.3144,3.3141,3.3139,3.3136,3.3138,3.314,3.3142,3.3205,0,0,3.3149,3.315,0,0,0,0,0,0,0,0,3.3162,3.3165,3.3178,3.3175,3.3172,3.3171,3.3185,3.3205,3.3144,3.3154,3.3138,3.3135,3.3152,3.3153,3.3158,3.3205,3.3205,3.315,3.3151,3.3152,3.3153,0,0,0,0,0,0,0,3.3161,3.3164,3.3204,3.3178,3.3175,3.3159,3.3158,3.3188,3.3166,3.3153,3.3148,3.3149,3.315,3.3156,3.3158,3.3205,3.3149,3.3151,3.3153,3.3154,3.3302,3.3305,0,0,0,0,0,0,3.3164,3.3164,3.3204,3.3204,3.3161,3.3162,3.3161,3.3174,3.3166,3.3162,3.3151,3.3146,3.3153,3.3155,3.3157,3.3229,3.3152,3.3154,3.3155,3.33,3.3303,3.3305,0,0,0,0,0,0,3.3163,3.3168,3.3204,3.3183,3.3186,3.3166,3.318,3.3175,3.3181,3.3165,3.316,3.3162,3.3151,3.3154,3.3193,3.3228,3.3155,3.3157,3.3297,3.3301,3.3304,3.3373,0,0,0,0,0,0,3.3162,3.3168,3.3192,3.3184,3.3187,3.324,3.3182,3.3177,3.3186,3.3179,3.3174,3.317,3.315,3.319,3.3196,3.323,3.3159,3.3293,3.3298,3.3303,3.3368,3.3379,3.3389,0,0,0,0,0,3.316,3.3212,3.3194,3.3199,3.3217,3.3242,3.3244,3.322,3.3189,3.3212,3.3201,3.317,3.3224,3.3195,3.32,3.3236,3.3291,3.3297,3.3303,3.3363,3.3377,3.3389,0,0,0,0,0,0,3.3226,3.3211,3.319,3.3241,3.3244,3.3232,3.3261,3.3235,3.3247,3.324,3.3209,3.3208,3.3252,3.3248,3.3216,3.3295,3.3252,3.3259,3.3296,3.3309,3.3319,3.3318,3.3161,0,0,0,0,0,3.3246,3.3268,3.3254,3.33,3.3303,3.3282,3.3292,3.3273,3.3274,3.3275,3.3266,3.3269,3.3285,3.3297,3.3312,3.3368,3.3364,3.3395,3.3405,3.3414,3.342,3.3447,3.3459,3.3324,3.3324,3.3324,0,0,3.3289,3.3283,3.3299,3.3314,3.3313,3.3336,3.3283,3.331,3.3326,3.3279,3.3314,3.3309,3.3309,3.3356,3.3376,3.3354,3.3456,3.3421,3.3428,3.3429,3.3454,3.3467,3.3478,3.3328,3.3328,3.3327,0,0,3.3378,3.3377,3.3414,3.3414,3.3414,3.34,3.3409,3.3401,3.3395,3.3431,3.3395,3.3414,3.3444,3.3445,3.345,3.3538,3.3509,3.3544,3.3598,3.3624,3.3635,3.3644,3.3674,3.3685,3.355,3.355,3.355,0,3.343,3.3463,3.3437,3.3465,3.3472,3.343,3.3466,3.3468,3.3473,3.3478,3.3454,3.3489,3.3487,3.3533,3.3554,3.356,3.3568,3.3543,3.3636,3.3645,3.3653,3.368,3.3692,3.3554,3.3554,3.3553,3.3553,0,3.3527,3.3551,3.3581,3.3586,3.3596,3.3629,3.3606,3.362,3.36,3.3588,3.3624,3.3619,3.3631,3.3641,3.3622,3.3684,3.367,3.3641,3.3596,3.367,3.3695,3.3706,3.356,3.3559,3.3557,3.3556,0,0,3.3657,3.3646,3.3657,3.3658,3.3654,3.3672,3.3702,3.3714,3.3725,3.373,3.3754,3.378,3.3753,3.3758,3.3739,3.3763,3.383,3.373,3.373,3.3747,3.3896,3.3916,3.3929,3.3812,3.3814,3.3815,3.3895,0,3.3741,3.3792,3.3768,3.3822,3.3842,3.3802,3.3828,3.3828,3.3818,3.3833,3.3822,3.384,3.3804,3.3807,3.3829,3.3817,3.3859,3.3811,3.3832,3.3833,3.3831,3.3942,3.3964,3.4039,3.3905,3.3907,3.3908,0,3.3846,3.3854,3.391,3.39,3.3908,3.3932,3.394,3.3955,3.3954,3.3945,3.3951,3.3926,3.3954,3.3911,3.3949,3.3917,3.3924,3.392,3.3922,3.3922,3.3874,3.3943,3.4063,3.4074,3.3924,3.3922,3.3921,0,3.3933,3.3958,3.3993,3.3996,3.3986,3.4004,3.4001,3.3997,3.4005,3.4012,3.4017,3.4028,3.4033,3.4042,3.402,3.3991,3.406,3.4016,3.4052,3.4053,3.4067,3.4066,3.4189,3.4076,3.4076,3.4075,3.4075,0,3.4028,3.4063,3.4032,3.4053,3.4091,3.4063,3.4101,3.4093,3.4091,3.411,3.4077,3.4095,3.4066,3.4082,3.4065,3.4098,3.4101,3.4094,3.4088,3.4096,3.4096,3.4098,3.4092,3.4078,3.4078,3.4077,3.4077,0,3.4131,3.4111,3.4147,3.4135,3.4133,3.416,3.415,3.4169,3.4156,3.4181,3.4185,3.4165,3.4182,3.4161,3.4176,3.4165,3.4209,3.4197,3.4209,3.4205,3.4242,3.4238,3.4368,3.4383,3.4263,3.4264,3.4265,0,3.4192,3.4217,3.4208,3.4218,3.4216,3.4233,3.4241,3.4215,3.4224,3.4224,3.4243,3.4257,3.4266,3.4294,3.4281,3.4292,3.4279,3.4324,3.428,3.4286,3.4277,3.4275,3.4277,3.4332,3.4334,3.4335,3.4336,0,3.4302,3.429,3.4302,3.4311,3.4321,3.4326,3.433,3.434,3.4312,3.4324,3.434,3.4348,3.4362,3.4376,3.4383,3.4379,3.4353,3.435,3.4358,3.4365,3.437,3.4366,3.4231,3.4346,3.4345,3.4345,3.4344,3.4344,3.4384,3.4404,3.4399,3.4413,3.4413,3.4416,3.4433,3.4422,3.4435,3.4444,3.4428,3.4448,3.4446,3.4452,3.4452,3.4467,3.4447,3.4461,3.4463,3.4467,3.4471,3.4369,3.4468,3.4468,3.4468,3.4468,3.4467,0,3.449,3.4485,3.4498,3.4503,3.4514,3.4488,3.449,3.45,3.4518,3.4518,3.4527,3.4545,3.4558,3.4546,3.4556,3.457,3.4558,3.4574,3.4571,3.4571,3.4489,3.448,3.4583,3.4583,3.4583,3.4583,3.4583,3.4583,3.4546,3.4578,3.4566,3.4597,3.4592,3.461,3.4613,3.4616,3.4615,3.4637,3.4647,3.4639,3.4633,3.4642,3.4653,3.4649,3.4653,3.4673,3.4665,3.4588,3.4577,3.4566,3.4557,3.4675,3.4675,3.4744,3.4745,3.4746]}]]